[[{"header":{"parameterUnit":"m.s-1","parameterCategory":1,"la1":30.2991,"la2":30.254,"lo1":-89.0895,"lo2":-89.0444,"dy":0.0017,"dx":0.0017,"nx":28,"ny":28,"refTime":"2024-05-20T21:00:00:Z","depth":0,"parameterNumber":2,"parameterNumberName":"U-component_of_WINDS"},"data":[0,0,0,0,0,0,0,0,0,0,0,0,0,0,0,0,0,0,0,0,0,0,0,0,0,0,0,0,0,0,0,0,0,0,0,0,0,0,0,0,0,0,0,0,0,0,0,0,0,0,0,0,0,0,0,0,0,0,-3.2193,-3.2194,0,-3.2236,-3.2236,-3.2237,-3.2211,-3.221,-3.2209,-3.2208,-3.2252,-3.2255,-3.2257,0,0,0,0,0,0,0,0,0,0,0,0,0,-3.2092,-3.2094,-3.2193,-3.2194,-3.2194,-3.2236,-3.2236,-3.2237,-3.2212,-3.221,-3.2209,-3.2207,-3.2252,-3.2254,-3.2257,0,0,0,0,0,0,0,0,0,0,0,0,0,-3.2136,-3.2095,-3.2193,-3.2187,-3.2186,-3.2236,-3.2236,-3.2237,-3.2212,-3.221,-3.2208,-3.2207,-3.2251,-3.2254,-3.2258,-3.2316,0,0,-3.2268,-3.227,0,0,0,0,0,0,0,0,-3.2133,-3.2139,-3.2187,-3.2187,-3.2187,-3.2216,-3.2217,-3.2264,-3.2212,-3.2202,-3.2208,-3.2206,-3.2242,-3.2246,-3.2258,-3.2318,-3.232,-3.2269,-3.2271,-3.2272,-3.2273,0,0,0,0,0,0,0,-3.213,-3.2138,-3.221,-3.2188,-3.2188,-3.2182,-3.2187,-3.2226,-3.2232,-3.2203,-3.2201,-3.2207,-3.2242,-3.2255,-3.2259,-3.232,-3.2268,-3.2272,-3.2274,-3.2275,-3.2432,-3.2434,0,0,0,0,0,0,-3.2128,-3.2135,-3.2209,-3.2211,-3.2155,-3.2186,-3.219,-3.2209,-3.2231,-3.2233,-3.2208,-3.2205,-3.225,-3.2255,-3.226,-3.2331,-3.2272,-3.2275,-3.2277,-3.243,-3.2432,-3.2435,0,0,0,0,0,0,-3.2126,-3.2134,-3.2207,-3.2173,-3.2182,-3.2189,-3.221,-3.2211,-3.2224,-3.2235,-3.2236,-3.222,-3.2249,-3.2256,-3.2303,-3.2332,-3.2277,-3.228,-3.2427,-3.2431,-3.2433,-3.2471,0,0,0,0,0,0,-3.2123,-3.2134,-3.2155,-3.2173,-3.2184,-3.2248,-3.2212,-3.2213,-3.223,-3.2226,-3.2247,-3.2249,-3.2248,-3.2297,-3.2306,-3.2336,-3.2283,-3.2425,-3.2429,-3.2432,-3.2467,-3.2475,-3.2482,0,0,0,0,0,-3.2119,-3.2164,-3.2156,-3.2165,-3.221,-3.2249,-3.2255,-3.2253,-3.2232,-3.2254,-3.2262,-3.2248,-3.2328,-3.2302,-3.2312,-3.2343,-3.2423,-3.2428,-3.2432,-3.2464,-3.2474,-3.2482,0,0,0,0,0,0,-3.2149,-3.2166,-3.2158,-3.221,-3.2228,-3.2245,-3.2272,-3.2263,-3.2288,-3.2284,-3.228,-3.2285,-3.2334,-3.2343,-3.2315,-3.2401,-3.2372,-3.2379,-3.2393,-3.2402,-3.241,-3.2406,-3.2286,0,0,0,0,0,-3.2161,-3.2191,-3.2205,-3.2249,-3.2259,-3.2264,-3.2281,-3.2278,-3.2297,-3.2305,-3.2316,-3.2336,-3.2365,-3.2384,-3.2412,-3.2469,-3.2474,-3.2496,-3.2503,-3.2509,-3.2514,-3.2546,-3.2556,-3.245,-3.245,-3.245,0,0,-3.2187,-3.2201,-3.2219,-3.2256,-3.2269,-3.2301,-3.2271,-3.2305,-3.2329,-3.231,-3.2355,-3.2364,-3.2386,-3.2439,-3.2462,-3.2448,-3.2545,-3.2515,-3.2519,-3.2522,-3.2552,-3.2562,-3.2571,-3.2453,-3.2452,-3.2452,0,0,-3.2251,-3.2264,-3.2302,-3.2318,-3.2339,-3.2343,-3.2353,-3.2371,-3.2377,-3.2422,-3.2409,-3.2438,-3.2488,-3.2505,-3.2519,-3.2592,-3.258,-3.2602,-3.2639,-3.267,-3.2679,-3.2686,-3.2712,-3.2722,-3.2607,-3.2607,-3.2607,0,-3.228,-3.2327,-3.2324,-3.2359,-3.2376,-3.2362,-3.2402,-3.2417,-3.2446,-3.2459,-3.2442,-3.2507,-3.252,-3.2577,-3.2595,-3.2608,-3.2619,-3.2598,-3.2678,-3.2685,-3.2692,-3.2717,-3.2727,-3.261,-3.2609,-3.2609,-3.2609,0,-3.2362,-3.2395,-3.2424,-3.2453,-3.2474,-3.2511,-3.2515,-3.2536,-3.2532,-3.2538,-3.2585,-3.2602,-3.2633,-3.2646,-3.2642,-3.2703,-3.2694,-3.2678,-3.2648,-3.2705,-3.2728,-3.2737,-3.2613,-3.2612,-3.2612,-3.2611,0,0,-3.2444,-3.2472,-3.2483,-3.2497,-3.2521,-3.2546,-3.2584,-3.2615,-3.2633,-3.2655,-3.2687,-3.2732,-3.2718,-3.2735,-3.2733,-3.2761,-3.2818,-3.2742,-3.2742,-3.2755,-3.2887,-3.2898,-3.2909,-3.2811,-3.2813,-3.2814,-3.2885,0,-3.2509,-3.2574,-3.2573,-3.2634,-3.2665,-3.2653,-3.2686,-3.2705,-3.2712,-3.274,-3.2748,-3.278,-3.2758,-3.2769,-3.2796,-3.2805,-3.2844,-3.28,-3.2841,-3.2843,-3.2835,-3.2921,-3.2933,-3.2998,-3.2894,-3.2895,-3.2897,0,-3.2592,-3.2617,-3.2681,-3.2702,-3.2715,-3.2744,-3.2773,-3.28,-3.2822,-3.2825,-3.2846,-3.284,-3.288,-3.285,-3.2906,-3.2876,-3.2893,-3.2901,-3.2903,-3.2906,-3.2872,-3.2926,-3.3019,-3.3029,-3.2911,-3.291,-3.2909,0,-3.2645,-3.2695,-3.274,-3.2752,-3.2777,-3.2799,-3.281,-3.2831,-3.285,-3.2876,-3.2888,-3.2918,-3.2935,-3.2959,-3.2962,-3.294,-3.3018,-3.2989,-3.3023,-3.3023,-3.3038,-3.3037,-3.3135,-3.3051,-3.3051,-3.305,-3.305,0,-3.2718,-3.2757,-3.2764,-3.2791,-3.2836,-3.2836,-3.2881,-3.2891,-3.2909,-3.2939,-3.2931,-3.296,-3.2963,-3.2993,-3.2996,-3.3042,-3.3049,-3.3054,-3.3054,-3.3054,-3.3053,-3.3064,-3.306,-3.3053,-3.3053,-3.3052,-3.3052,0,-3.2784,-3.279,-3.2838,-3.2858,-3.2865,-3.2897,-3.2915,-3.2942,-3.2949,-3.2987,-3.2996,-3.3008,-3.3042,-3.3049,-3.309,-3.3092,-3.3147,-3.3143,-3.3139,-3.3138,-3.3172,-3.3169,-3.328,-3.3295,-3.3201,-3.3202,-3.3203,0,-3.2829,-3.2859,-3.2883,-3.2903,-3.2915,-3.2947,-3.2966,-3.2969,-3.299,-3.3018,-3.3042,-3.3076,-3.3103,-3.316,-3.3172,-3.3204,-3.3201,-3.3237,-3.3205,-3.3205,-3.3201,-3.3199,-3.3202,-3.3243,-3.3244,-3.3245,-3.3246,0,-3.2909,-3.2911,-3.2939,-3.2969,-3.2992,-3.3016,-3.3039,-3.3055,-3.3061,-3.3085,-3.3121,-3.3142,-3.3184,-3.3219,-3.3251,-3.3264,-3.3256,-3.3256,-3.3266,-3.3266,-3.3262,-3.3265,-3.3155,-3.3253,-3.3252,-3.3252,-3.3251,-3.3251,-3.2966,-3.2992,-3.3014,-3.3046,-3.3063,-3.3085,-3.3112,-3.3122,-3.3152,-3.3186,-3.3186,-3.3226,-3.3249,-3.3291,-3.3307,-3.3338,-3.3326,-3.334,-3.3343,-3.3347,-3.335,-3.3258,-3.3344,-3.3344,-3.3343,-3.3343,-3.3343,0,-3.3045,-3.3059,-3.3089,-3.312,-3.3146,-3.3137,-3.3162,-3.3184,-3.3219,-3.3241,-3.3268,-3.331,-3.3343,-3.3359,-3.3393,-3.3415,-3.3412,-3.3424,-3.3422,-3.3425,-3.3358,-3.3347,-3.3425,-3.3425,-3.3425,-3.3425,-3.3425,-3.3425,-3.309,-3.3134,-3.3139,-3.3193,-3.3207,-3.3245,-3.326,-3.328,-3.3298,-3.3345,-3.3373,-3.3383,-3.3403,-3.3438,-3.3469,-3.3473,-3.3486,-3.3499,-3.3501,-3.3438,-3.343,-3.3422,-3.3411,-3.3501,-3.3501,-3.3565,-3.3566,-3.3566]},{"header":{"parameterUnit":"m.s-1","parameterCategory":1,"la1":30.2991,"la2":30.254,"lo1":-89.0895,"lo2":-89.0444,"dy":0.0017,"dx":0.0017,"nx":28,"ny":28,"refTime":"2024-05-20T21:00:00:Z","depth":0,"parameterNumber":3,"parameterNumberName":"V-component_of_WINDS"},"data":[0,0,0,0,0,0,0,0,0,0,0,0,0,0,0,0,0,0,0,0,0,0,0,0,0,0,0,0,0,0,0,0,0,0,0,0,0,0,0,0,0,0,0,0,0,0,0,0,0,0,0,0,0,0,0,0,0,0,3.7276,3.7276,0,3.7243,3.7243,3.7242,3.7261,3.7262,3.7263,3.7264,3.7226,3.7224,3.7222,0,0,0,0,0,0,0,0,0,0,0,0,0,3.7353,3.7351,3.7276,3.7276,3.7275,3.7243,3.7243,3.7242,3.7261,3.7262,3.7263,3.7264,3.7226,3.7224,3.7222,0,0,0,0,0,0,0,0,0,0,0,0,0,3.7319,3.7351,3.7276,3.7281,3.7281,3.7243,3.7243,3.7242,3.7261,3.7262,3.7263,3.7265,3.7227,3.7224,3.7222,3.7176,0,0,3.7213,3.7212,0,0,0,0,0,0,0,0,3.7321,3.7317,3.7281,3.7281,3.7281,3.7258,3.7256,3.722,3.726,3.7268,3.7264,3.7265,3.7235,3.7232,3.7222,3.7174,3.7173,3.7213,3.7211,3.721,3.7209,0,0,0,0,0,0,0,3.7324,3.7318,3.7263,3.728,3.728,3.7284,3.7281,3.7249,3.7244,3.7268,3.7269,3.7265,3.7235,3.7225,3.7221,3.7172,3.7213,3.721,3.7209,3.7207,3.7085,3.7084,0,0,0,0,0,0,3.7326,3.732,3.7264,3.7262,3.7305,3.7281,3.7278,3.7264,3.7244,3.7243,3.7264,3.7266,3.7229,3.7225,3.722,3.7166,3.721,3.7207,3.7206,3.7087,3.7085,3.7083,0,0,0,0,0,0,3.7328,3.7321,3.7265,3.7291,3.7285,3.7278,3.7262,3.7262,3.7252,3.7242,3.724,3.7254,3.723,3.7224,3.7187,3.7165,3.7206,3.7203,3.7089,3.7086,3.7084,3.7057,0,0,0,0,0,0,3.733,3.7321,3.7305,3.7291,3.7283,3.7234,3.7261,3.726,3.7247,3.725,3.7232,3.7231,3.7231,3.7191,3.7184,3.7162,3.7201,3.7091,3.7088,3.7085,3.706,3.7054,3.7049,0,0,0,0,0,3.7332,3.7297,3.7304,3.7297,3.7262,3.7233,3.7228,3.723,3.7246,3.7228,3.7222,3.7231,3.7169,3.7187,3.718,3.7156,3.7092,3.7089,3.7085,3.7062,3.7055,3.7049,0,0,0,0,0,0,3.7307,3.7295,3.7303,3.7262,3.7248,3.7236,3.7214,3.7222,3.7202,3.7205,3.7207,3.7203,3.7165,3.7156,3.7178,3.7111,3.7133,3.7127,3.7118,3.7111,3.7106,3.7108,3.7199,0,0,0,0,0,3.7297,3.7275,3.7266,3.7231,3.7224,3.722,3.7207,3.721,3.7195,3.7189,3.718,3.7164,3.7141,3.7125,3.7103,3.7059,3.7055,3.7038,3.7033,3.7029,3.7024,3.7,3.6993,3.7072,3.7072,3.7072,0,0,3.7275,3.7266,3.7252,3.7225,3.7215,3.7191,3.7215,3.7188,3.7171,3.7184,3.715,3.7142,3.7125,3.7084,3.7066,3.7076,3.7001,3.7024,3.7021,3.7018,3.6996,3.6988,3.6982,3.707,3.707,3.707,0,0,3.7224,3.7215,3.7186,3.7175,3.716,3.7158,3.7151,3.7137,3.7133,3.7099,3.7109,3.7087,3.7047,3.7034,3.7023,3.6968,3.6976,3.696,3.6932,3.6909,3.6902,3.6897,3.6877,3.687,3.6956,3.6956,3.6956,0,3.7199,3.7165,3.7169,3.7142,3.713,3.7143,3.7113,3.7102,3.7079,3.707,3.7083,3.7034,3.7023,3.6979,3.6966,3.6956,3.6948,3.6962,3.6903,3.6898,3.6892,3.6874,3.6867,3.6954,3.6954,3.6954,3.6954,0,3.7135,3.7111,3.7089,3.7069,3.7054,3.7025,3.7024,3.7009,3.7013,3.7009,3.6973,3.6961,3.6937,3.6927,3.693,3.6884,3.6891,3.6903,3.6925,3.6883,3.6866,3.6859,3.6951,3.6952,3.6953,3.6953,0,0,3.7066,3.705,3.7041,3.7033,3.7017,3.6998,3.697,3.6948,3.6935,3.6919,3.6895,3.6861,3.6873,3.686,3.6861,3.6841,3.6798,3.6855,3.6855,3.6845,3.6747,3.6739,3.673,3.6804,3.6803,3.6801,3.6749,0,3.7014,3.6967,3.697,3.6925,3.6903,3.6915,3.6891,3.6878,3.6874,3.6854,3.6849,3.6825,3.6842,3.6834,3.6814,3.6808,3.6779,3.6812,3.6781,3.678,3.6785,3.6721,3.6712,3.6663,3.6742,3.6741,3.674,0,3.6948,3.6931,3.6884,3.6873,3.6864,3.6842,3.6822,3.6803,3.6789,3.6787,3.6773,3.6778,3.6749,3.6772,3.6732,3.6754,3.6742,3.6736,3.6735,3.6732,3.6757,3.6717,3.6647,3.664,3.6729,3.673,3.6731,0,3.6903,3.6869,3.6837,3.6829,3.6814,3.6798,3.6791,3.6779,3.6765,3.6748,3.6739,3.6718,3.6706,3.6689,3.6688,3.6705,3.6648,3.667,3.6645,3.6645,3.6632,3.6633,3.656,3.6624,3.6624,3.6624,3.6625,0,3.6845,3.6816,3.6817,3.6797,3.6764,3.6768,3.6735,3.6729,3.6718,3.6697,3.6705,3.6685,3.6685,3.6664,3.6663,3.663,3.6624,3.6622,3.6622,3.6621,3.6621,3.6613,3.6616,3.6623,3.6623,3.6623,3.6624,0,3.6789,3.6789,3.6755,3.6744,3.6741,3.6717,3.6708,3.6688,3.6686,3.6658,3.6652,3.6647,3.6623,3.6621,3.6592,3.6591,3.6551,3.6555,3.6557,3.6557,3.6532,3.6535,3.6451,3.644,3.6511,3.6511,3.651,0,3.6752,3.6731,3.6718,3.6705,3.6698,3.6676,3.6664,3.6666,3.6652,3.6634,3.6617,3.6594,3.6575,3.6536,3.6529,3.6507,3.651,3.6483,3.6507,3.6507,3.651,3.6512,3.6509,3.6478,3.6477,3.6476,3.6476,0,3.6687,3.6688,3.667,3.6651,3.6636,3.6621,3.6607,3.6596,3.6596,3.658,3.6556,3.6542,3.6514,3.649,3.6469,3.6461,3.6468,3.6468,3.6461,3.646,3.6462,3.6461,3.6544,3.647,3.6471,3.6471,3.6471,3.6472,3.664,3.6622,3.661,3.659,3.658,3.6567,3.6548,3.6544,3.6524,3.6502,3.6504,3.6478,3.6464,3.6436,3.6427,3.6405,3.6414,3.6404,3.6402,3.6399,3.6397,3.6466,3.6401,3.6401,3.6402,3.6402,3.6402,0,3.6576,3.6569,3.655,3.6532,3.6515,3.6525,3.651,3.6495,3.6472,3.6459,3.6442,3.6414,3.6392,3.6383,3.6361,3.6346,3.6349,3.634,3.6341,3.6339,3.639,3.6398,3.6338,3.6338,3.6338,3.6338,3.6338,3.6338,3.6541,3.651,3.6509,3.6474,3.6467,3.6442,3.6433,3.6421,3.6411,3.638,3.6362,3.6357,3.6346,3.6323,3.6303,3.6301,3.6293,3.6282,3.6282,3.6329,3.6336,3.6342,3.635,3.6281,3.6281,3.6233,3.6233,3.6233]}]]